Live-Position
3D-Globus wird geladen...
Über Starlink 4725
Group: 3 satellites
Beschreibung wird geladen...
Nächste Überflüge
Passes for default location (London). Set your location on the main map for personalized predictions.
Höhenverlauf
Loading altitude history...
No altitude history available
Zweizeiliger Elementsatz
1 53700U 22107A 26126.61352723 .00000773 00000-0 66661-4 0 9999
2 53700 53.2187 343.7145 0002425 98.9343 261.1924 15.08832959203605
Epoch: 6. Mai 2026 •
Age: 5 hours
Aktueller Status
Höhe 542.7 km
Geschwindigkeit 7.60 km/s
Subsatellitenpunkt 44.20°N,
48.61°W
Startdatum 5. Sept. 2022
Alter 3.6 years
Typ internet
Startgruppe
Falcon 9 •
Group 4-20 •
40 satellites
Starlink 4711
53701
Starlink 4724 53702
Starlink 4731 53703
Starlink 4714 53704
Starlink 4717 53705
Starlink 4716 53706
Starlink 4667 53707
Starlink 4694 53708
Starlink 4685 53709
Starlink 4627 53711
Starlink 4683 53712
Starlink 4686 53715
Starlink 4699 53716
Starlink 4695 53718
Starlink 4644 53719
Starlink 4642 53720
Starlink 4707 53721
Starlink 4700 53722
Starlink 4705 53723
Starlink 4663 53724
...and 19 more
Technische Details
Klassifizierung Payload
Masse 305.00 kg
Trockenmasse 290.00 kg
Gesamtmasse 305.00 kg
Länge 0.20 m
Durchmesser 2.80 m
Spannweite 9.00 m
Form Box + pan
Hersteller SPXS
Bus-Typ Starlink
Phasenstatus In Orbit
Besitzer/Staat SPXS/US
Most Searched
Loading...